MDT,Max TemperatureF,Mean TemperatureF,Min TemperatureF,Max Dew PointF,MeanDew PointF,Min DewpointF,Max Humidity, Mean Humidity, Min Humidity, Max Sea Level PressureIn, Mean Sea Level PressureIn, Min Sea Level PressureIn, Max VisibilityMiles, Mean VisibilityMiles, Min VisibilityMiles, Max Wind SpeedMPH, Mean Wind SpeedMPH, Max Gust SpeedMPH,PrecipitationIn, CloudCover, Events, WindDirDegrees
2013-3-1,43,31,19,27,21,14,84,64,43,30.37,30.32,30.28,10,10,10,28,12,32,0.00,5,,310
2013-3-2,55,43,30,32,27,24,78,58,38,30.32,30.20,30.01,10,10,10,21,12,24,0.00,0,,258
2013-3-3,61,48,35,29,26,21,60,41,22,29.97,29.72,29.58,10,10,10,17,9,22,0.00,1,,246
2013-3-4,42,31,19,29,21,9,85,65,45,30.30,29.93,29.63,10,7,1,27,16,38,T,6,Snow,342
2013-3-5,39,26,13,18,12,5,74,53,32,30.44,30.35,30.26,10,10,10,26,14,31,0.00,0,,215
2013-3-6,54,35,15,26,21,11,88,60,32,30.24,30.02,29.82,10,10,10,22,12,25,0.00,0,,147
2013-3-7,64,46,27,30,25,17,82,50,17,29.97,29.90,29.82,10,10,10,17,11,20,0.00,0,,185
2013-3-8,50,37,23,32,28,22,92,73,53,29.99,29.85,29.65,10,10,7,13,7,18,0.00,1,,36
2013-3-9,37,28,19,31,27,13,92,80,68,30.12,29.74,29.59,10,3,0,43,20,49,0.11,7,Fog-Snow,349
2013-3-10,35,25,15,18,15,11,88,63,38,30.22,30.15,30.07,10,10,9,33,17,40,T,2,,331
2013-3-11,49,40,30,32,27,16,100,71,42,30.15,30.03,29.93,10,5,0,28,13,31,0.08,6,Fog-Rain-Snow,313
2013-3-12,38,30,22,30,24,19,92,73,54,30.40,30.26,30.13,10,7,1,20,12,24,T,5,Snow,302
2013-3-13,62,44,26,32,27,23,85,56,27,30.30,30.23,30.16,10,10,9,21,11,24,0.00,0,,257
2013-3-14,68,51,33,30,26,22,75,47,19,30.26,30.15,30.02,10,10,10,17,11,21,0.00,0,,260
2013-3-15,77,61,44,30,25,17,53,33,13,29.99,29.84,29.73,10,10,10,30,13,49,0.00,2,,262
2013-3-16,51,41,31,34,29,26,76,58,39,29.98,29.90,29.82,10,10,10,28,15,32,0.02,4,Rain,129
2013-3-17,59,42,25,29,23,8,85,55,24,29.84,29.67,29.49,10,10,10,35,16,44,T,2,Rain,229
2013-3-18,50,35,20,20,9,1,81,49,16,29.96,29.91,29.85,10,10,10,30,14,40,0.00,2,,310
2013-3-19,51,35,19,18,12,-2,84,48,11,30.40,30.16,29.94,10,10,10,31,12,39,0.00,1,,9
2013-3-20,53,35,17,22,17,14,91,56,20,30.39,30.11,29.75,10,10,9,25,9,33,0.00,3,,168
2013-3-21,52,38,24,36,27,18,92,64,35,29.86,29.69,29.54,10,8,1,35,7,41,0.28,5,Rain-Snow,75
2013-3-22,43,33,22,30,25,19,92,68,43,29.92,29.85,29.75,10,5,0,29,11,35,0.06,5,Fog-Snow,19
2013-3-23,27,16,5,27,18,7,100,87,73,30.33,30.00,29.83,10,2,0,26,17,31,0.04,8,Fog-Snow,9
2013-3-24,22,12,1,18,9,-3,96,82,67,30.40,30.26,30.06,10,7,0,18,11,20,0.01,4,Fog-Rain-Snow,300
2013-3-25,24,12,-1,14,7,-3,95,75,54,30.48,30.43,30.38,10,10,10,16,10,18,0.00,1,,272
2013-3-26,38,26,14,29,18,-1,92,70,47,30.37,30.15,30.02,10,10,10,18,11,22,0.00,2,,186
2013-3-27,46,36,26,34,29,23,92,75,58,30.16,30.11,30.02,10,10,8,16,6,21,0.00,2,,205
2013-3-28,59,46,32,38,32,27,82,60,37,30.12,30.08,30.01,10,10,9,15,11,18,0.00,2,,206
2013-3-29,68,54,40,38,33,27,79,53,26,30.09,30.02,29.94,10,10,10,24,12,29,T,3,Rain,251
2013-3-30,62,47,32,40,33,29,85,57,29,30.18,30.07,29.98,10,10,10,28,11,33,T,2,,318
2013-3-31,67,49,30,34,27,19,92,54,16,30.16,30.04,29.88,10,8,1,22,10,25,0.00,0,,273